Location: Dehesa de la Cepeda
(40.6574°N, 4.3013°W)
Time: 10:37:10
(UTC+00:00)

Vanguard 2 Rocket - Pass Details

Date: 30 October 2021
Orbit: 555 x 3324 km, 32.9° (Epoch: 08 December)

Event Time Altitude Azimuth Distance (km) Brightness Sun altitude
Exits shadow 05:20:33 13° 248° (WSW) 5,489 10.3 -16.6°
Maximum altitude 05:35:18 58° 176° (S) 2,330 9.0 -13.8°
Drops below altitude 10° 05:44:35 10° 100° (E) 3,520 11.5 -12.0°
Sets 05:46:59 0° 96° (E) 4,212 12.5 -11.6°
